TimeEDT,TemperatureF,Dew PointF,Humidity,Sea Level PressureIn,VisibilityMPH,Wind Direction,Wind SpeedMPH,Gust SpeedMPH,PrecipitationIn,Events,Conditions,WindDirDegrees,DateUTC
12:52 AM,63.0,59.0,87,30.04,8.0,Calm,Calm,-,N/A,,Clear,0,2013-07-07 04:52:00
1:52 AM,61.0,57.9,90,30.03,7.0,Calm,Calm,-,N/A,,Clear,0,2013-07-07 05:52:00
2:52 AM,62.1,59.0,90,30.02,8.0,Calm,Calm,-,N/A,,Clear,0,2013-07-07 06:52:00
3:52 AM,61.0,57.9,90,30.02,6.0,West,3.5,-,N/A,,Clear,270,2013-07-07 07:52:00
4:52 AM,62.1,59.0,90,30.02,7.0,Calm,Calm,-,N/A,,Clear,0,2013-07-07 08:52:00
5:52 AM,61.0,57.9,90,30.03,6.0,Calm,Calm,-,N/A,,Clear,0,2013-07-07 09:52:00
6:52 AM,63.0,60.1,90,30.03,7.0,Calm,Calm,-,N/A,,Clear,0,2013-07-07 10:52:00
7:52 AM,68.0,62.1,81,30.04,9.0,Calm,Calm,-,N/A,,Clear,0,2013-07-07 11:52:00
8:52 AM,75.9,64.9,69,30.04,10.0,Calm,Calm,-,N/A,,Clear,0,2013-07-07 12:52:00
9:52 AM,80.1,61.0,52,30.02,10.0,SW,3.5,-,N/A,,Clear,230,2013-07-07 13:52:00
10:52 AM,82.0,63.0,52,30.01,10.0,WSW,5.8,-,N/A,,Clear,240,2013-07-07 14:52:00
11:52 AM,80.1,63.0,56,30.01,10.0,SW,4.6,-,N/A,,Scattered Clouds,230,2013-07-07 15:52:00
12:52 PM,81.0,63.0,54,30.01,10.0,West,8.1,-,N/A,,Mostly Cloudy,270,2013-07-07 16:52:00
1:52 PM,81.0,64.0,56,30.00,10.0,Variable,6.9,-,N/A,,Mostly Cloudy,0,2013-07-07 17:52:00
2:52 PM,81.0,63.0,54,29.99,10.0,Variable,5.8,-,N/A,,Scattered Clouds,0,2013-07-07 18:52:00
3:52 PM,82.9,63.0,51,29.96,10.0,North,3.5,-,N/A,,Clear,350,2013-07-07 19:52:00
4:52 PM,81.0,64.0,56,29.96,10.0,NNW,5.8,-,N/A,,Overcast,340,2013-07-07 20:52:00
5:52 PM,80.1,63.0,56,29.95,10.0,NNW,3.5,-,N/A,,Overcast,340,2013-07-07 21:52:00
6:52 PM,78.1,64.0,62,29.96,10.0,Calm,Calm,-,N/A,,Overcast,0,2013-07-07 22:52:00
7:52 PM,73.9,63.0,68,29.97,10.0,North,5.8,-,N/A,,Clear,350,2013-07-07 23:52:00
8:52 PM,71.1,64.0,78,29.97,10.0,Calm,Calm,-,N/A,,Overcast,0,2013-07-08 00:52:00
9:52 PM,71.1,64.0,78,29.98,10.0,Calm,Calm,-,N/A,,Overcast,0,2013-07-08 01:52:00
10:52 PM,69.1,64.9,87,29.97,10.0,Calm,Calm,-,N/A,,Mostly Cloudy,0,2013-07-08 02:52:00
11:52 PM,69.1,64.0,84,29.98,9.0,Calm,Calm,-,N/A,,Clear,0,2013-07-08 03:52:00